MysteryTwister C3
NUMBER OF ACTIVE MEMBERS:

8051
Follow us: Facebook Twitter
 



Level II Challenges (95)

Page 1 of the challenges in Level II, ordered by date posted (the most recent appear first).

Not-so-Secret Message from Malawi — Part II (ECC)

[schaefer-02] - 27 users already solved this challenge, 2 are working on it.
 
 
 

It is also important to choose the parameters of an elliptic curve cryptosystem wisely. This was not done in this example, which should enable you to decrypt another ciphertext message from Malawi. The plaintext reveals the codeword, although this time it is not as closely related to the photo.
Read more...

Click here to get to the corresponding forum topic to share your opinion.
Click here to download the challenge.
Click here to download the additional file of the challenge.

Author: This email address is being protected from spambots. You need JavaScript enabled to view it.
Published on: 2010-10-14 13:30
Maximum number of attempts for this challenge: 50

All successful users of this challenge

Rank User (#27) Achieved points (Global score) y-m-d - h:m:s

Cezary Glowacz (cezaryglowacz) 1576 (9995) 2010-10-19 17:20:21
Ulrich Armbrüster (uarmbruester) 1414 (7987) 2010-10-29 20:08:00
Flip (Flip) 1222 (31107) 2011-02-04 00:26:45
Armin Krauss (argh) 1216 (152721) 2011-02-14 16:01:41
#5 Wolfgang Weisser (wowmyst) 1209 (33108) 2011-03-02 01:51:28
#6 J. M. (jomandi) 1179 (113270) 2011-06-07 00:19:02
#7 Viktor (Veselovský) 1169 (113116) 2011-07-27 17:16:22
#8 Daniel Fretwell (fretty) 1169 (30107) 2011-07-28 13:00:03
#9 The Killer (Killer) 1152 (42393) 2011-11-28 01:29:31
#10 Keith Randall (randall77) 1151 (31011) 2011-12-05 19:03:10
#11 Luigi Tomelli (archstanton) 1143 (95549) 2012-03-04 20:45:58
#12 Aliazer (Aliazer) 1140 (12214) 2012-04-19 22:15:47
#13 Michel Van Caneghem (vancan) 1138 (49719) 2012-05-18 09:29:50
#14 Bart den Hartog (Bart13) 1134 (116412) 2012-07-17 13:35:26
#15 Christian (Etschupu) 1134 (31788) 2012-07-19 15:13:25
#16 Thomas Lambert (lambert) 1132 (38594) 2012-08-22 18:48:04
#17 RPH (derichard) 1121 (27044) 2013-04-17 00:00:47
#18 Em Doulgerakis (Greko) 1118 (109970) 2013-07-17 14:15:08
#19 Kurt Gebauer (Yokozuna) 1117 (120839) 2013-08-17 22:40:10
#20 zahir mohsen moradi (ariobarzan) 1116 (99757) 2013-09-13 23:04:52
#21 Alain (Integral) 1113 (198642) 2014-01-09 17:32:40
#22 Forrest Gump (Polyphem) 1112 (38763) 2014-02-18 22:55:00
#23 Francisco Moraes (fmoraes) 1106 (90044) 2014-11-20 19:52:23
#24 Ben Ward (bward) 1101 (2519) 2015-08-01 22:54:14
#25 Martin (martinbucher) 1098 (22726) 2016-03-22 12:29:12
#26 Dominik M. (Sgt. Pepper) 1095 (43997) 2016-10-05 22:14:50
#27 T (Wagner) 1093 (13934) 2017-05-10 07:57:03
You must be logged in to solve the challenge
Pages [1] 1 Show All  
 
 
powered by the CrypTool project  CrypTool

 

   +++    [01:02 - 29.05.2017] george4096 solved the Level II challenge 'Weakened Handycipher — Part 6'    +++    [00:37 - 29.05.2017] george4096 solved the Level III challenge 'Extended Handycipher — Part 5'    +++    [00:30 - 29.05.2017] george4096 solved the Level III challenge 'Extended Handycipher — Part 4'    +++    [00:06 - 29.05.2017] george4096 solved the Level III challenge 'Handycipher — Part 4'    +++    [23:56 - 28.05.2017] george4096 solved the Level III challenge 'Handycipher — Part 5'    +++